When you browse on this site, cookies collect data to enhance your experience and personalize the content and advertising you see.
Visit our Privacy Policy to learn more. By continuing to use the site, you agree to this use of cookies and data.

Previsão horária em Abasolo

Hoje, 29 Setembro, Terça-feira

Tempo Temperatura Precipitação Vento Pressão Humidade
00:00 +22°C° 0 mm 4 m/s 758 mmHg 46%
01:00 +22°C° 0 mm 5 m/s 758 mmHg 47%
02:00 +22°C° 0 mm 5 m/s 758 mmHg 47%
03:00 +21°C° 0 mm 5 m/s 759 mmHg 48%
04:00 +21°C° 0 mm 5 m/s 759 mmHg 48%
05:00 +21°C° 0 mm 5 m/s 759 mmHg 48%
06:00 +22°C° 0 mm 6 m/s 760 mmHg 45%
07:00 +23°C° 0 mm 7 m/s 761 mmHg 41%
08:00 +24°C° 0 mm 8 m/s 761 mmHg 38%
09:00 +26°C° 0 mm 8 m/s 761 mmHg 35%
10:00 +27°C° 0 mm 8 m/s 761 mmHg 32%
11:00 +28°C° 0 mm 8 m/s 760 mmHg 29%
12:00 +29°C° 0 mm 7 m/s 760 mmHg 29%
13:00 +29°C° 0 mm 7 m/s 759 mmHg 28%
14:00 +29°C° 0 mm 6 m/s 759 mmHg 28%
15:00 +28°C° 0 mm 5 m/s 759 mmHg 32%
16:00 +26°C° 0 mm 4 m/s 759 mmHg 36%
17:00 +25°C° 0 mm 2 m/s 759 mmHg 40%
18:00 +23°C° 0 mm 2 m/s 759 mmHg 43%
19:00 +21°C° 0 mm 1 m/s 760 mmHg 45%
20:00 +20°C° 0 mm 1 m/s 761 mmHg 48%
21:00 +19°C° 0 mm 1 m/s 760 mmHg 51%
22:00 +19°C° 0 mm 1 m/s 760 mmHg 54%
23:00 +18°C° 0 mm 1 m/s 760 mmHg 57%

Amanhã, 30 Setembro, Quarta-feira

Tempo Temperatura Precipitação Vento Pressão Humidade
00:00 +18°C° 0 mm 1 m/s 760 mmHg 57%
01:00 +18°C° 0 mm 1 m/s 759 mmHg 57%
02:00 +16°C° 0 mm 1 m/s 759 mmHg 58%
03:00 +16°C° 0 mm 1 m/s 759 mmHg 58%
04:00 +16°C° 0 mm 1 m/s 759 mmHg 57%
05:00 +16°C° 0 mm 1 m/s 759 mmHg 57%
06:00 +18°C° 0 mm 2 m/s 759 mmHg 51%
07:00 +21°C° 0 mm 2 m/s 760 mmHg 46%
08:00 +24°C° 0 mm 2 m/s 760 mmHg 40%
09:00 +26°C° 0 mm 1 m/s 760 mmHg 34%
10:00 +28°C° 0 mm 1 m/s 759 mmHg 29%
11:00 +29°C° 0 mm 0 m/s 759 mmHg 23%
12:00 +31°C° 0 mm 1 m/s 758 mmHg 23%
13:00 +31°C° 0 mm 2 m/s 758 mmHg 22%
14:00 +31°C° 0 mm 2 m/s 757 mmHg 22%
15:00 +29°C° 0 mm 3 m/s 757 mmHg 30%
16:00 +27°C° 0 mm 3 m/s 757 mmHg 39%
17:00 +25°C° 0 mm 4 m/s 757 mmHg 47%
18:00 +22°C° 0 mm 3 m/s 757 mmHg 52%
19:00 +21°C° 0 mm 3 m/s 758 mmHg 57%
20:00 +19°C° 0 mm 2 m/s 758 mmHg 62%
21:00 +19°C° 0 mm 2 m/s 758 mmHg 65%
22:00 +19°C° 0 mm 1 m/s 758 mmHg 67%
23:00 +19°C° 0 mm 1 m/s 758 mmHg 69%

Depois de amanhã, 1 Outubro, Quinta-feira

Tempo Temperatura Precipitação Vento Pressão Humidade
00:00 +19°C° 0 mm 1 m/s 758 mmHg 69%
01:00 +18°C° 0 mm 1 m/s 758 mmHg 70%
02:00 +18°C° 0 mm 1 m/s 757 mmHg 70%
03:00 +18°C° 0 mm 1 m/s 757 mmHg 70%
04:00 +18°C° 0 mm 1 m/s 757 mmHg 71%
05:00 +18°C° 0 mm 1 m/s 758 mmHg 72%
06:00 +20°C° 0 mm 1 m/s 758 mmHg 64%
07:00 +22°C° 0 mm 1 m/s 759 mmHg 57%
08:00 +25°C° 0 mm 1 m/s 759 mmHg 50%
09:00 +26°C° 0 mm 1 m/s 759 mmHg 45%
10:00 +28°C° 0 mm 1 m/s 759 mmHg 40%
11:00 +30°C° 0 mm 1 m/s 759 mmHg 35%
12:00 +30°C° 0 mm 2 m/s 758 mmHg 35%
13:00 +31°C° 0 mm 2 m/s 757 mmHg 35%
14:00 +31°C° 0 mm 3 m/s 757 mmHg 35%
15:00 +29°C° 0 mm 3 m/s 757 mmHg 44%
16:00 +28°C° 0 mm 4 m/s 757 mmHg 52%
17:00 +26°C° 0 mm 4 m/s 758 mmHg 60%
18:00 +24°C° 0 mm 3 m/s 758 mmHg 66%
19:00 +23°C° 0 mm 2 m/s 759 mmHg 72%
20:00 +21°C° 0 mm 1 m/s 759 mmHg 79%
21:00 +21°C° 0 mm 1 m/s 759 mmHg 80%
22:00 +21°C° 0 mm 1 m/s 759 mmHg 82%
23:00 +20°C° 0 mm 1 m/s 759 mmHg 83%

2 Outubro, Sexta-feira

Tempo Temperatura Precipitação Vento Pressão Humidade
00:00 +20°C° 0 mm 1 m/s 759 mmHg 83%
01:00 +20°C° 0 mm 1 m/s 759 mmHg 83%
02:00 +20°C° 0 mm 1 m/s 759 mmHg 83%
03:00 +20°C° 0 mm 1 m/s 759 mmHg 83%
04:00 +20°C° 0 mm 1 m/s 759 mmHg 83%
05:00 +20°C° 0 mm 1 m/s 759 mmHg 83%
06:00 +21°C° 0 mm 2 m/s 759 mmHg 75%
07:00 +24°C° 0 mm 2 m/s 760 mmHg 67%
08:00 +26°C° 0 mm 2 m/s 760 mmHg 59%
09:00 +28°C° 0 mm 2 m/s 760 mmHg 54%
10:00 +29°C° 0 mm 2 m/s 760 mmHg 49%
11:00 +31°C° 0 mm 2 m/s 759 mmHg 44%
12:00 +31°C° 0 mm 3 m/s 759 mmHg 43%
13:00 +33°C° 0 mm 3 m/s 758 mmHg 42%
14:00 +33°C° 0 mm 4 m/s 757 mmHg 41%
15:00 +30°C° 0 mm 4 m/s 757 mmHg 48%
16:00 +29°C° 0 mm 4 m/s 758 mmHg 55%
17:00 +27°C° 0 mm 4 m/s 758 mmHg 61%
18:00 +26°C° 0 mm 3 m/s 758 mmHg 68%
19:00 +24°C° 0 mm 3 m/s 759 mmHg 74%
20:00 +23°C° 0 mm 2 m/s 759 mmHg 81%
21:00 +23°C° 0 mm 1 m/s 759 mmHg 84%
22:00 +22°C° 0 mm 1 m/s 759 mmHg 87%
23:00 +19°C° 0 mm 0 m/s 759 mmHg 90%

3 Outubro, Sábado

Tempo Temperatura Precipitação Vento Pressão Humidade
00:00 +21°C° 0 mm 1 m/s 758 mmHg 90%
01:00 +21°C° 0 mm 1 m/s 758 mmHg 91%
02:00 +21°C° 0 mm 1 m/s 758 mmHg 91%
03:00 +21°C° 0 mm 1 m/s 758 mmHg 91%
04:00 +21°C° 0 mm 1 m/s 758 mmHg 92%
05:00 +20°C° 0 mm 1 m/s 758 mmHg 92%
06:00 +23°C° 0 mm 1 m/s 758 mmHg 83%
07:00 +25°C° 0 mm 1 m/s 758 mmHg 74%
08:00 +27°C° 0 mm 1 m/s 758 mmHg 66%
09:00 +29°C° 0 mm 1 m/s 758 mmHg 58%
10:00 +30°C° 0 mm 2 m/s 757 mmHg 51%
11:00 +32°C° 0 mm 2 m/s 757 mmHg 44%
12:00 +33°C° 0 mm 3 m/s 756 mmHg 43%
13:00 +34°C° 0 mm 4 m/s 756 mmHg 42%
14:00 +34°C° 0 mm 4 m/s 755 mmHg 41%
15:00 +32°C° 0 mm 4 m/s 755 mmHg 49%
16:00 +30°C° 0 mm 4 m/s 755 mmHg 58%
17:00 +28°C° 0 mm 4 m/s 756 mmHg 67%
18:00 +26°C° 0 mm 4 m/s 756 mmHg 72%
19:00 +25°C° 0 mm 3 m/s 757 mmHg 77%
20:00 +24°C° 0 mm 3 m/s 757 mmHg 82%
21:00 +24°C° 0 mm 2 m/s 757 mmHg 85%
22:00 +23°C° 0 mm 2 m/s 757 mmHg 88%
23:00 +23°C° 0 mm 1 m/s 757 mmHg 91%

4 Outubro, Domingo

Tempo Temperatura Precipitação Vento Pressão Humidade
00:00 +22°C° 0 mm 1 m/s 756 mmHg 91%
01:00 +22°C° 0 mm 1 m/s 756 mmHg 92%
02:00 +22°C° 0 mm 1 m/s 756 mmHg 93%
03:00 +21°C° 0 mm 1 m/s 756 mmHg 93%
04:00 +21°C° 0 mm 1 m/s 756 mmHg 93%
05:00 +21°C° 0 mm 1 m/s 756 mmHg 93%
06:00 +23°C° 0 mm 1 m/s 756 mmHg 85%
07:00 +25°C° 0 mm 1 m/s 757 mmHg 77%
08:00 +27°C° 0 mm 1 m/s 757 mmHg 69%
09:00 +29°C° 0 mm 1 m/s 757 mmHg 59%
10:00 +31°C° 0 mm 2 m/s 756 mmHg 49%
11:00 +34°C° 0 mm 2 m/s 756 mmHg 40%
12:00 +34°C° 0 mm 3 m/s 756 mmHg 38%
13:00 +35°C° 0 mm 3 m/s 755 mmHg 36%
14:00 +35°C° 0 mm 4 m/s 754 mmHg 34%
15:00 +33°C° 0 mm 4 m/s 755 mmHg 42%
16:00 +30°C° 0 mm 4 m/s 755 mmHg 51%
17:00 +28°C° 0 mm 4 m/s 755 mmHg 59%
18:00 +26°C° 0 mm 3 m/s 756 mmHg 67%
19:00 +24°C° 0 mm 2 m/s 756 mmHg 74%
20:00 +23°C° 0 mm 2 m/s 757 mmHg 82%
21:00 +22°C° 0 mm 1 m/s 757 mmHg 84%
22:00 +22°C° 0 mm 1 m/s 757 mmHg 86%
23:00 +21°C° 0 mm 1 m/s 757 mmHg 88%
Mostrar mais